Regional Weather Roundup
Issued by NWS

Home | Current Version | Previous Version | Graphics & Text | Print | Product List | Glossary On
Versions: 1 2 3 4 5 6 7 8 9 10 11 12 13 14 15 16 17 18 19 20 21 22 23 24 25 26 27 28 29 30 31 32 33 34 35 36 37 38 39 40 41 42 43 44 45 46 47 48 49 50
000
ASUS45 KSLC 280610
RWRUT

UTAH REGIONAL WEATHER ROUNDUP
NATIONAL WEATHER SERVICE SALT LAKE CITY UT
1100 PM MST THU NOV 27 2014

UTZ001>011-023>025-280700-

NORTHERN UTAH

CITY           SKY/WX    TMP DP  RH WIND       PRES   REMARKS
BRIGHAM CITY   PTCLDY    41  30  64 NW3       30.12S
HILL AFB       PTCLDY    43  24  46 SE8       30.12F
LOGAN          CLEAR     36  30  79 CALM      30.11S
OGDEN          PTCLDY    41  29  62 SE10      30.11F
PROVO AIRPORT  MOCLDY    36  30  80 E5        30.18F WCI  32
SALT LAKE CITY MOCLDY    47  26  44 SE10      30.11F
VERNAL         MOCLDY    34  25  69 W6        30.22F WCI  29
WENDOVER       CLOUDY    37  27  65 W5        30.12F WCI  34
HEBER CITY     MOCLDY    28  25  86 CALM      30.19F
WEST JORDAN    CLEAR     54  28  37 S15       30.13F

$$

UTZ012>022-026-027-280700-

SOUTHERN/CENTRAL UTAH

CITY           SKY/WX    TMP DP  RH WIND       PRES   REMARKS
BLANDING       MOCLDY    33  22  63 N7        30.38S WCI  27
BRYCE CANYON   PTCLDY    18  13  80 SW7       30.35F WCI   9
CEDAR CITY     MOCLDY    43  10  26 SE9       30.24S
DELTA          CLOUDY    38  29  70 CALM      30.18S
MILFORD        CLOUDY    45  17  32 S12       30.20S
MOAB/CYNLANDS  CLEAR     30  19  63 SW3       30.27F
PRICE          PTCLDY    31  22  69 N7        30.28F WCI  24
ST GEORGE      MOCLDY    43  18  36 CALM      30.23S
KANAB          PTCLDY    30  16  55 N3        30.31S

$$

REGIONAL REPORTS     COLORADO/ARIZONA

CITY           SKY/WX    TMP DP  RH WIND       PRES   REMARKS
CRAIG, CO      PTCLDY    30  26  85 CALM      30.24F
GRAND JUNCTION PTCLDY    34  24  67 CALM      30.28F
RIFLE          PTCLDY    31  27  85 CALM      30.31F
MONTROSE       CLEAR     29  22  75 S8        30.33F WCI  21
CORTEZ         CLEAR     25  17  72 E8        30.34S WCI  16
PAGE, AZ       MOCLDY    41  17  38 CALM      30.27S
GRAND CANYON   MOCLDY    23   5  46 CALM      30.35F
KINGMAN        PTCLDY    39  15  37 CALM      30.19F
FLAGSTAFF      PTCLDY    30  13  49 CALM      30.36F

$$

REGIONAL REPORTS    NEVADA/IDAHO/WYOMING

CITY           SKY/WX    TMP DP  RH WIND       PRES   REMARKS
LAS VEGAS, NV  MOCLDY    50  21  32 S9        30.12F
ELY            CLOUDY    35  13  40 CALM      30.24S
ELKO           CLOUDY    40  30  67 CALM      30.13S
POCATELLO, ID  CLEAR     53  23  31 S9        30.04F
BURLEY         CLOUDY    52  27  38 SW15      30.02F
EVANSTON, WY   MOCLDY    39  20  46 SW14      30.19F WCI  31
ROCK SPRINGS   PTCLDY    37  20  50 W12       30.16S WCI  29

$$


USA.gov is the U.S. government's official web portal to all federal, state and local government web resources and services.